Index of /20260504/WXO-DD/model_caps/3km/12/008
Name Last modified Size Description
Parent Directory -
20260504T12Z_MSC_CAPS_AbsoluteVorticity_IsbL-0250_RLatLon0.03_PT008H.grib2 2026-05-04 18:11 1.1M
20260504T12Z_MSC_CAPS_AbsoluteVorticity_IsbL-0500_RLatLon0.03_PT008H.grib2 2026-05-04 18:11 1.1M
20260504T12Z_MSC_CAPS_AbsoluteVorticity_IsbL-0700_RLatLon0.03_PT008H.grib2 2026-05-04 18:11 1.3M
20260504T12Z_MSC_CAPS_AbsoluteVorticity_IsbL-0850_RLatLon0.03_PT008H.grib2 2026-05-04 18:11 1.2M
20260504T12Z_MSC_CAPS_AbsoluteVorticity_IsbL-1000_RLatLon0.03_PT008H.grib2 2026-05-04 18:11 1.4M
20260504T12Z_MSC_CAPS_AirDensity_AGL-120m_RLatLon0.03_PT008H.grib2 2026-05-04 18:11 1.4M
20260504T12Z_MSC_CAPS_AirDensity_AGL-40m_RLatLon0.03_PT008H.grib2 2026-05-04 18:11 1.4M
20260504T12Z_MSC_CAPS_AirDensity_AGL-80m_RLatLon0.03_PT008H.grib2 2026-05-04 18:11 1.4M
20260504T12Z_MSC_CAPS_AirTemp_AGL-120m_RLatLon0.03_PT008H.grib2 2026-05-04 18:11 1.4M
20260504T12Z_MSC_CAPS_AirTemp_AGL-2m_RLatLon0.03_PT008H.grib2 2026-05-04 18:11 1.7M
20260504T12Z_MSC_CAPS_AirTemp_AGL-40m_RLatLon0.03_PT008H.grib2 2026-05-04 18:11 1.5M
20260504T12Z_MSC_CAPS_AirTemp_AGL-80m_RLatLon0.03_PT008H.grib2 2026-05-04 18:11 1.5M
20260504T12Z_MSC_CAPS_AirTemp_IsbL-0050_RLatLon0.03_PT008H.grib2 2026-05-04 18:11 690K
20260504T12Z_MSC_CAPS_AirTemp_IsbL-0100_RLatLon0.03_PT008H.grib2 2026-05-04 18:11 960K
20260504T12Z_MSC_CAPS_AirTemp_IsbL-0150_RLatLon0.03_PT008H.grib2 2026-05-04 18:11 748K
20260504T12Z_MSC_CAPS_AirTemp_IsbL-0175_RLatLon0.03_PT008H.grib2 2026-05-04 18:11 769K
20260504T12Z_MSC_CAPS_AirTemp_IsbL-0200_RLatLon0.03_PT008H.grib2 2026-05-04 18:11 794K
20260504T12Z_MSC_CAPS_AirTemp_IsbL-0225_RLatLon0.03_PT008H.grib2 2026-05-04 18:11 798K
20260504T12Z_MSC_CAPS_AirTemp_IsbL-0250_RLatLon0.03_PT008H.grib2 2026-05-04 18:11 789K
20260504T12Z_MSC_CAPS_AirTemp_IsbL-0275_RLatLon0.03_PT008H.grib2 2026-05-04 18:11 784K
20260504T12Z_MSC_CAPS_AirTemp_IsbL-0300_RLatLon0.03_PT008H.grib2 2026-05-04 18:11 1.0M
20260504T12Z_MSC_CAPS_AirTemp_IsbL-0350_RLatLon0.03_PT008H.grib2 2026-05-04 18:11 752K
20260504T12Z_MSC_CAPS_AirTemp_IsbL-0400_RLatLon0.03_PT008H.grib2 2026-05-04 18:11 758K
20260504T12Z_MSC_CAPS_AirTemp_IsbL-0450_RLatLon0.03_PT008H.grib2 2026-05-04 18:11 770K
20260504T12Z_MSC_CAPS_AirTemp_IsbL-0500_RLatLon0.03_PT008H.grib2 2026-05-04 18:11 783K
20260504T12Z_MSC_CAPS_AirTemp_IsbL-0550_RLatLon0.03_PT008H.grib2 2026-05-04 18:11 955K
20260504T12Z_MSC_CAPS_AirTemp_IsbL-0600_RLatLon0.03_PT008H.grib2 2026-05-04 18:11 970K
20260504T12Z_MSC_CAPS_AirTemp_IsbL-0650_RLatLon0.03_PT008H.grib2 2026-05-04 18:11 1.0M
20260504T12Z_MSC_CAPS_AirTemp_IsbL-0700_RLatLon0.03_PT008H.grib2 2026-05-04 18:11 1.0M
20260504T12Z_MSC_CAPS_AirTemp_IsbL-0750_RLatLon0.03_PT008H.grib2 2026-05-04 18:11 1.0M
20260504T12Z_MSC_CAPS_AirTemp_IsbL-0800_RLatLon0.03_PT008H.grib2 2026-05-04 18:11 1.1M
20260504T12Z_MSC_CAPS_AirTemp_IsbL-0850_RLatLon0.03_PT008H.grib2 2026-05-04 18:11 1.1M
20260504T12Z_MSC_CAPS_AirTemp_IsbL-0875_RLatLon0.03_PT008H.grib2 2026-05-04 18:11 1.1M
20260504T12Z_MSC_CAPS_AirTemp_IsbL-0900_RLatLon0.03_PT008H.grib2 2026-05-04 18:11 1.0M
20260504T12Z_MSC_CAPS_AirTemp_IsbL-0925_RLatLon0.03_PT008H.grib2 2026-05-04 18:11 1.0M
20260504T12Z_MSC_CAPS_AirTemp_IsbL-0950_RLatLon0.03_PT008H.grib2 2026-05-04 18:11 1.1M
20260504T12Z_MSC_CAPS_AirTemp_IsbL-0970_RLatLon0.03_PT008H.grib2 2026-05-04 18:11 1.1M
20260504T12Z_MSC_CAPS_AirTemp_IsbL-0985_RLatLon0.03_PT008H.grib2 2026-05-04 18:11 1.0M
20260504T12Z_MSC_CAPS_AirTemp_IsbL-1000_RLatLon0.03_PT008H.grib2 2026-05-04 18:11 1.0M
20260504T12Z_MSC_CAPS_AirTemp_IsbL-1015_RLatLon0.03_PT008H.grib2 2026-05-04 18:11 1.1M
20260504T12Z_MSC_CAPS_Albedo_Sfc_RLatLon0.03_PT008H.grib2 2026-05-04 18:11 2.7M
20260504T12Z_MSC_CAPS_CAPE_Sfc_RLatLon0.03_PT008H.grib2 2026-05-04 18:11 149K
20260504T12Z_MSC_CAPS_CloudWater_EAtm_RLatLon0.03_PT008H.grib2 2026-05-04 18:11 1.4M
20260504T12Z_MSC_CAPS_ConvectivePrecip-Accum_Sfc_RLatLon0.03_PT008H.grib2 2026-05-04 18:11 2.0M
20260504T12Z_MSC_CAPS_DewPointDepression_AGL-120m_RLatLon0.03_PT008H.grib2 2026-05-04 18:11 2.0M
20260504T12Z_MSC_CAPS_DewPointDepression_AGL-2m_RLatLon0.03_PT008H.grib2 2026-05-04 18:11 2.1M
20260504T12Z_MSC_CAPS_DewPointDepression_AGL-40m_RLatLon0.03_PT008H.grib2 2026-05-04 18:11 2.1M
20260504T12Z_MSC_CAPS_DewPointDepression_AGL-80m_RLatLon0.03_PT008H.grib2 2026-05-04 18:11 2.1M
20260504T12Z_MSC_CAPS_DewPointDepression_IsbL-0050_RLatLon0.03_PT008H.grib2 2026-05-04 18:11 6.4K
20260504T12Z_MSC_CAPS_DewPointDepression_IsbL-0100_RLatLon0.03_PT008H.grib2 2026-05-04 18:11 75K
20260504T12Z_MSC_CAPS_DewPointDepression_IsbL-0150_RLatLon0.03_PT008H.grib2 2026-05-04 18:11 80K
20260504T12Z_MSC_CAPS_DewPointDepression_IsbL-0175_RLatLon0.03_PT008H.grib2 2026-05-04 18:11 195K
20260504T12Z_MSC_CAPS_DewPointDepression_IsbL-0200_RLatLon0.03_PT008H.grib2 2026-05-04 18:11 372K
20260504T12Z_MSC_CAPS_DewPointDepression_IsbL-0225_RLatLon0.03_PT008H.grib2 2026-05-04 18:11 626K
20260504T12Z_MSC_CAPS_DewPointDepression_IsbL-0250_RLatLon0.03_PT008H.grib2 2026-05-04 18:11 822K
20260504T12Z_MSC_CAPS_DewPointDepression_IsbL-0275_RLatLon0.03_PT008H.grib2 2026-05-04 18:11 955K
20260504T12Z_MSC_CAPS_DewPointDepression_IsbL-0300_RLatLon0.03_PT008H.grib2 2026-05-04 18:11 1.0M
20260504T12Z_MSC_CAPS_DewPointDepression_IsbL-0350_RLatLon0.03_PT008H.grib2 2026-05-04 18:11 1.0M
20260504T12Z_MSC_CAPS_DewPointDepression_IsbL-0400_RLatLon0.03_PT008H.grib2 2026-05-04 18:11 1.1M
20260504T12Z_MSC_CAPS_DewPointDepression_IsbL-0450_RLatLon0.03_PT008H.grib2 2026-05-04 18:11 1.1M
20260504T12Z_MSC_CAPS_DewPointDepression_IsbL-0500_RLatLon0.03_PT008H.grib2 2026-05-04 18:11 1.1M
20260504T12Z_MSC_CAPS_DewPointDepression_IsbL-0550_RLatLon0.03_PT008H.grib2 2026-05-04 18:11 1.1M
20260504T12Z_MSC_CAPS_DewPointDepression_IsbL-0600_RLatLon0.03_PT008H.grib2 2026-05-04 18:11 1.2M
20260504T12Z_MSC_CAPS_DewPointDepression_IsbL-0650_RLatLon0.03_PT008H.grib2 2026-05-04 18:11 1.2M
20260504T12Z_MSC_CAPS_DewPointDepression_IsbL-0700_RLatLon0.03_PT008H.grib2 2026-05-04 18:11 1.2M
20260504T12Z_MSC_CAPS_DewPointDepression_IsbL-0750_RLatLon0.03_PT008H.grib2 2026-05-04 18:11 1.2M
20260504T12Z_MSC_CAPS_DewPointDepression_IsbL-0800_RLatLon0.03_PT008H.grib2 2026-05-04 18:11 1.3M
20260504T12Z_MSC_CAPS_DewPointDepression_IsbL-0850_RLatLon0.03_PT008H.grib2 2026-05-04 18:11 1.3M
20260504T12Z_MSC_CAPS_DewPointDepression_IsbL-0875_RLatLon0.03_PT008H.grib2 2026-05-04 18:11 1.3M
20260504T12Z_MSC_CAPS_DewPointDepression_IsbL-0900_RLatLon0.03_PT008H.grib2 2026-05-04 18:11 1.3M
20260504T12Z_MSC_CAPS_DewPointDepression_IsbL-0925_RLatLon0.03_PT008H.grib2 2026-05-04 18:11 1.3M
20260504T12Z_MSC_CAPS_DewPointDepression_IsbL-0950_RLatLon0.03_PT008H.grib2 2026-05-04 18:11 1.3M
20260504T12Z_MSC_CAPS_DewPointDepression_IsbL-0970_RLatLon0.03_PT008H.grib2 2026-05-04 18:11 1.3M
20260504T12Z_MSC_CAPS_DewPointDepression_IsbL-0985_RLatLon0.03_PT008H.grib2 2026-05-04 18:11 1.3M
20260504T12Z_MSC_CAPS_DewPointDepression_IsbL-1000_RLatLon0.03_PT008H.grib2 2026-05-04 18:11 1.3M
20260504T12Z_MSC_CAPS_DewPointDepression_IsbL-1015_RLatLon0.03_PT008H.grib2 2026-05-04 18:11 1.3M
20260504T12Z_MSC_CAPS_DewPoint_AGL-120m_RLatLon0.03_PT008H.grib2 2026-05-04 18:11 3.6M
20260504T12Z_MSC_CAPS_DewPoint_AGL-2m_RLatLon0.03_PT008H.grib2 2026-05-04 18:11 1.7M
20260504T12Z_MSC_CAPS_DewPoint_AGL-40m_RLatLon0.03_PT008H.grib2 2026-05-04 18:11 3.7M
20260504T12Z_MSC_CAPS_DewPoint_AGL-80m_RLatLon0.03_PT008H.grib2 2026-05-04 18:11 3.7M
20260504T12Z_MSC_CAPS_DownwardLongwaveRadiationFlux-Accum_Sfc_RLatLon0.03_PT008H.grib2 2026-05-04 18:11 2.1M
20260504T12Z_MSC_CAPS_DownwardShortwaveRadiationFlux-Accum_NTAtm_RLatLon0.03_PT008H.grib2 2026-05-04 18:11 454K
20260504T12Z_MSC_CAPS_DownwardShortwaveRadiationFlux-Accum_Sfc_RLatLon0.03_PT008H.grib2 2026-05-04 18:11 2.3M
20260504T12Z_MSC_CAPS_FreezingRain-Accum_Sfc_RLatLon0.03_PT008H.grib2 2026-05-04 18:11 225K
20260504T12Z_MSC_CAPS_GeopotentialHeight_IsbL-0050_RLatLon0.03_PT008H.grib2 2026-05-04 18:11 643K
20260504T12Z_MSC_CAPS_GeopotentialHeight_IsbL-0100_RLatLon0.03_PT008H.grib2 2026-05-04 18:11 764K
20260504T12Z_MSC_CAPS_GeopotentialHeight_IsbL-0150_RLatLon0.03_PT008H.grib2 2026-05-04 18:11 723K
20260504T12Z_MSC_CAPS_GeopotentialHeight_IsbL-0175_RLatLon0.03_PT008H.grib2 2026-05-04 18:11 738K
20260504T12Z_MSC_CAPS_GeopotentialHeight_IsbL-0200_RLatLon0.03_PT008H.grib2 2026-05-04 18:11 748K
20260504T12Z_MSC_CAPS_GeopotentialHeight_IsbL-0225_RLatLon0.03_PT008H.grib2 2026-05-04 18:11 759K
20260504T12Z_MSC_CAPS_GeopotentialHeight_IsbL-0250_RLatLon0.03_PT008H.grib2 2026-05-04 18:11 771K
20260504T12Z_MSC_CAPS_GeopotentialHeight_IsbL-0275_RLatLon0.03_PT008H.grib2 2026-05-04 18:11 782K
20260504T12Z_MSC_CAPS_GeopotentialHeight_IsbL-0300_RLatLon0.03_PT008H.grib2 2026-05-04 18:11 784K
20260504T12Z_MSC_CAPS_GeopotentialHeight_IsbL-0350_RLatLon0.03_PT008H.grib2 2026-05-04 18:11 785K
20260504T12Z_MSC_CAPS_GeopotentialHeight_IsbL-0400_RLatLon0.03_PT008H.grib2 2026-05-04 18:11 781K
20260504T12Z_MSC_CAPS_GeopotentialHeight_IsbL-0450_RLatLon0.03_PT008H.grib2 2026-05-04 18:11 772K
20260504T12Z_MSC_CAPS_GeopotentialHeight_IsbL-0500_RLatLon0.03_PT008H.grib2 2026-05-04 18:11 764K
20260504T12Z_MSC_CAPS_GeopotentialHeight_IsbL-0550_RLatLon0.03_PT008H.grib2 2026-05-04 18:11 641K
20260504T12Z_MSC_CAPS_GeopotentialHeight_IsbL-0600_RLatLon0.03_PT008H.grib2 2026-05-04 18:11 638K
20260504T12Z_MSC_CAPS_GeopotentialHeight_IsbL-0650_RLatLon0.03_PT008H.grib2 2026-05-04 18:11 809K
20260504T12Z_MSC_CAPS_GeopotentialHeight_IsbL-0700_RLatLon0.03_PT008H.grib2 2026-05-04 18:11 812K
20260504T12Z_MSC_CAPS_GeopotentialHeight_IsbL-0750_RLatLon0.03_PT008H.grib2 2026-05-04 18:11 888K
20260504T12Z_MSC_CAPS_GeopotentialHeight_IsbL-0800_RLatLon0.03_PT008H.grib2 2026-05-04 18:11 895K
20260504T12Z_MSC_CAPS_GeopotentialHeight_IsbL-0850_RLatLon0.03_PT008H.grib2 2026-05-04 18:11 830K
20260504T12Z_MSC_CAPS_GeopotentialHeight_IsbL-0875_RLatLon0.03_PT008H.grib2 2026-05-04 18:11 822K
20260504T12Z_MSC_CAPS_GeopotentialHeight_IsbL-0900_RLatLon0.03_PT008H.grib2 2026-05-04 18:11 843K
20260504T12Z_MSC_CAPS_GeopotentialHeight_IsbL-0925_RLatLon0.03_PT008H.grib2 2026-05-04 18:11 856K
20260504T12Z_MSC_CAPS_GeopotentialHeight_IsbL-0950_RLatLon0.03_PT008H.grib2 2026-05-04 18:11 855K
20260504T12Z_MSC_CAPS_GeopotentialHeight_IsbL-0970_RLatLon0.03_PT008H.grib2 2026-05-04 18:11 872K
20260504T12Z_MSC_CAPS_GeopotentialHeight_IsbL-0985_RLatLon0.03_PT008H.grib2 2026-05-04 18:11 882K
20260504T12Z_MSC_CAPS_GeopotentialHeight_IsbL-1000_RLatLon0.03_PT008H.grib2 2026-05-04 18:11 891K
20260504T12Z_MSC_CAPS_GeopotentialHeight_IsbL-1015_RLatLon0.03_PT008H.grib2 2026-05-04 18:11 699K
20260504T12Z_MSC_CAPS_GeopotentialHeight_Sfc_RLatLon0.03_PT008H.grib2 2026-05-04 18:11 1.0M
20260504T12Z_MSC_CAPS_IcePellets-Accum_Sfc_RLatLon0.03_PT008H.grib2 2026-05-04 18:11 12K
20260504T12Z_MSC_CAPS_LatentHeatNetFlux_Sfc_RLatLon0.03_PT008H.grib2 2026-05-04 18:11 2.0M
20260504T12Z_MSC_CAPS_LiftedIndex-MU-VT_IsbL-0500_RLatLon0.03_PT008H.grib2 2026-05-04 18:11 3.4M
20260504T12Z_MSC_CAPS_MixedLayerThickness_Sfc_RLatLon0.03_PT008H.nc 2026-05-04 18:14 16M
20260504T12Z_MSC_CAPS_NetLongwaveRadiationFlux-Accum_Sfc_RLatLon0.03_PT008H.grib2 2026-05-04 18:11 2.8M
20260504T12Z_MSC_CAPS_NetShortwaveRadiationFlux-Accum_Sfc_RLatLon0.03_PT008H.grib2 2026-05-04 18:11 2.4M
20260504T12Z_MSC_CAPS_PlanetaryBoundaryLayerHeight_Sfc_RLatLon0.03_PT008H.grib2 2026-05-04 18:11 2.9M
20260504T12Z_MSC_CAPS_Precip-Accum_Sfc_RLatLon0.03_PT008H.grib2 2026-05-04 18:11 3.2M
20260504T12Z_MSC_CAPS_PrecipRate_Sfc_RLatLon0.03_PT008H.grib2 2026-05-04 18:11 396K
20260504T12Z_MSC_CAPS_PrecipType-Instant_Sfc_RLatLon0.03_PT008H.grib2 2026-05-04 18:11 1.6M
20260504T12Z_MSC_CAPS_Pressure_MSL_RLatLon0.03_PT008H.grib2 2026-05-04 18:11 925K
20260504T12Z_MSC_CAPS_Pressure_Sfc_RLatLon0.03_PT008H.grib2 2026-05-04 18:11 1.2M
20260504T12Z_MSC_CAPS_RadiativeTemp_Sfc_RLatLon0.03_PT008H.grib2 2026-05-04 18:11 2.1M
20260504T12Z_MSC_CAPS_Rain-Accum_Sfc_RLatLon0.03_PT008H.grib2 2026-05-04 18:11 1.5M
20260504T12Z_MSC_CAPS_RelativeHumidity_AGL-120m_RLatLon0.03_PT008H.grib2 2026-05-04 18:11 2.8M
20260504T12Z_MSC_CAPS_RelativeHumidity_AGL-2m_RLatLon0.03_PT008H.grib2 2026-05-04 18:11 2.9M
20260504T12Z_MSC_CAPS_RelativeHumidity_AGL-40m_RLatLon0.03_PT008H.grib2 2026-05-04 18:11 2.9M
20260504T12Z_MSC_CAPS_RelativeHumidity_AGL-80m_RLatLon0.03_PT008H.grib2 2026-05-04 18:11 2.8M
20260504T12Z_MSC_CAPS_RelativeHumidity_IsbL-0050_RLatLon0.03_PT008H.grib2 2026-05-04 18:11 961K
20260504T12Z_MSC_CAPS_RelativeHumidity_IsbL-0100_RLatLon0.03_PT008H.grib2 2026-05-04 18:11 856K
20260504T12Z_MSC_CAPS_RelativeHumidity_IsbL-0150_RLatLon0.03_PT008H.grib2 2026-05-04 18:11 597K
20260504T12Z_MSC_CAPS_RelativeHumidity_IsbL-0175_RLatLon0.03_PT008H.grib2 2026-05-04 18:11 474K
20260504T12Z_MSC_CAPS_RelativeHumidity_IsbL-0200_RLatLon0.03_PT008H.grib2 2026-05-04 18:11 639K
20260504T12Z_MSC_CAPS_RelativeHumidity_IsbL-0225_RLatLon0.03_PT008H.grib2 2026-05-04 18:11 851K
20260504T12Z_MSC_CAPS_RelativeHumidity_IsbL-0250_RLatLon0.03_PT008H.grib2 2026-05-04 18:11 1.1M
20260504T12Z_MSC_CAPS_RelativeHumidity_IsbL-0275_RLatLon0.03_PT008H.grib2 2026-05-04 18:11 1.4M
20260504T12Z_MSC_CAPS_RelativeHumidity_IsbL-0300_RLatLon0.03_PT008H.grib2 2026-05-04 18:11 1.6M
20260504T12Z_MSC_CAPS_RelativeHumidity_IsbL-0350_RLatLon0.03_PT008H.grib2 2026-05-04 18:11 1.9M
20260504T12Z_MSC_CAPS_RelativeHumidity_IsbL-0400_RLatLon0.03_PT008H.grib2 2026-05-04 18:11 2.0M
20260504T12Z_MSC_CAPS_RelativeHumidity_IsbL-0450_RLatLon0.03_PT008H.grib2 2026-05-04 18:11 1.9M
20260504T12Z_MSC_CAPS_RelativeHumidity_IsbL-0500_RLatLon0.03_PT008H.grib2 2026-05-04 18:11 2.1M
20260504T12Z_MSC_CAPS_RelativeHumidity_IsbL-0550_RLatLon0.03_PT008H.grib2 2026-05-04 18:11 2.1M
20260504T12Z_MSC_CAPS_RelativeHumidity_IsbL-0600_RLatLon0.03_PT008H.grib2 2026-05-04 18:11 2.1M
20260504T12Z_MSC_CAPS_RelativeHumidity_IsbL-0650_RLatLon0.03_PT008H.grib2 2026-05-04 18:11 2.2M
20260504T12Z_MSC_CAPS_RelativeHumidity_IsbL-0700_RLatLon0.03_PT008H.grib2 2026-05-04 18:11 2.2M
20260504T12Z_MSC_CAPS_RelativeHumidity_IsbL-0750_RLatLon0.03_PT008H.grib2 2026-05-04 18:11 2.3M
20260504T12Z_MSC_CAPS_RelativeHumidity_IsbL-0800_RLatLon0.03_PT008H.grib2 2026-05-04 18:11 2.5M
20260504T12Z_MSC_CAPS_RelativeHumidity_IsbL-0850_RLatLon0.03_PT008H.grib2 2026-05-04 18:11 2.5M
20260504T12Z_MSC_CAPS_RelativeHumidity_IsbL-0875_RLatLon0.03_PT008H.grib2 2026-05-04 18:11 2.6M
20260504T12Z_MSC_CAPS_RelativeHumidity_IsbL-0900_RLatLon0.03_PT008H.grib2 2026-05-04 18:11 2.6M
20260504T12Z_MSC_CAPS_RelativeHumidity_IsbL-0925_RLatLon0.03_PT008H.grib2 2026-05-04 18:11 2.6M
20260504T12Z_MSC_CAPS_RelativeHumidity_IsbL-0950_RLatLon0.03_PT008H.grib2 2026-05-04 18:11 2.7M
20260504T12Z_MSC_CAPS_RelativeHumidity_IsbL-0970_RLatLon0.03_PT008H.grib2 2026-05-04 18:11 2.7M
20260504T12Z_MSC_CAPS_RelativeHumidity_IsbL-0985_RLatLon0.03_PT008H.grib2 2026-05-04 18:11 2.8M
20260504T12Z_MSC_CAPS_RelativeHumidity_IsbL-1000_RLatLon0.03_PT008H.grib2 2026-05-04 18:11 2.9M
20260504T12Z_MSC_CAPS_RelativeHumidity_IsbL-1015_RLatLon0.03_PT008H.grib2 2026-05-04 18:11 2.9M
20260504T12Z_MSC_CAPS_Runoff-Accum_Sfc_RLatLon0.03_PT008H.grib2 2026-05-04 18:11 239K
20260504T12Z_MSC_CAPS_SeaIceAreaFraction_Sfc_RLatLon0.03_PT008H.nc 2026-05-04 18:14 15M
20260504T12Z_MSC_CAPS_SeaIceCompressiveStrength_Sfc_RLatLon0.03_PT008H.nc 2026-05-04 18:14 15M
20260504T12Z_MSC_CAPS_SeaIceDivergence_Sfc_RLatLon0.03_PT008H.nc 2026-05-04 18:14 15M
20260504T12Z_MSC_CAPS_SeaIceInternalPressure_Sfc_RLatLon0.03_PT008H.nc 2026-05-04 18:14 15M
20260504T12Z_MSC_CAPS_SeaIceShear_Sfc_RLatLon0.03_PT008H.nc 2026-05-04 18:14 14M
20260504T12Z_MSC_CAPS_SeaIceSnowTemp_Sfc_RLatLon0.03_PT008H.nc 2026-05-04 18:14 14M
20260504T12Z_MSC_CAPS_SeaIceSnowVolume_Sfc_RLatLon0.03_PT008H.nc 2026-05-04 18:14 15M
20260504T12Z_MSC_CAPS_SeaIceVelocityX_Sfc_RLatLon0.03_PT008H.nc 2026-05-04 18:14 14M
20260504T12Z_MSC_CAPS_SeaIceVelocityY_Sfc_RLatLon0.03_PT008H.nc 2026-05-04 18:14 15M
20260504T12Z_MSC_CAPS_SeaIceVolume_Sfc_RLatLon0.03_PT008H.nc 2026-05-04 18:14 15M
20260504T12Z_MSC_CAPS_SeaSurfaceHeight_Sfc_RLatLon0.03_PT008H.nc 2026-05-04 18:14 16M
20260504T12Z_MSC_CAPS_SeaWaterSalinity_DBS-0.5m_RLatLon0.03_PT008H.nc 2026-05-04 18:14 16M
20260504T12Z_MSC_CAPS_SeaWaterSalinity_DBS-all_RLatLon0.03_PT008H.nc 2026-05-04 18:14 107M
20260504T12Z_MSC_CAPS_SeaWaterTemp_DBS-0.5m_RLatLon0.03_PT008H.nc 2026-05-04 18:14 14M
20260504T12Z_MSC_CAPS_SeaWaterTemp_DBS-all_RLatLon0.03_PT008H.nc 2026-05-04 18:14 88M
20260504T12Z_MSC_CAPS_SeaWaterVelocityX_DBS-0.5m_RLatLon0.03_PT008H.nc 2026-05-04 18:14 17M
20260504T12Z_MSC_CAPS_SeaWaterVelocityX_DBS-all_RLatLon0.03_PT008H.nc 2026-05-04 18:14 203M
20260504T12Z_MSC_CAPS_SeaWaterVelocityY_DBS-0.5m_RLatLon0.03_PT008H.nc 2026-05-04 18:14 17M
20260504T12Z_MSC_CAPS_SeaWaterVelocityY_DBS-all_RLatLon0.03_PT008H.nc 2026-05-04 18:14 214M
20260504T12Z_MSC_CAPS_SensibleHeatNetFlux_Sfc_RLatLon0.03_PT008H.grib2 2026-05-04 18:11 2.2M
20260504T12Z_MSC_CAPS_ShowalterIndex_IsbL-0500_RLatLon0.03_PT008H.grib2 2026-05-04 18:11 4.3M
20260504T12Z_MSC_CAPS_Snow-Accum_Sfc_RLatLon0.03_PT008H.grib2 2026-05-04 18:11 2.4M
20260504T12Z_MSC_CAPS_SnowDensity_Sfc_RLatLon0.03_PT008H.grib2 2026-05-04 18:11 1.2M
20260504T12Z_MSC_CAPS_SnowDepthWaterEquivalent_Sfc_RLatLon0.03_PT008H.grib2 2026-05-04 18:11 658K
20260504T12Z_MSC_CAPS_SnowDepth_Sfc_RLatLon0.03_PT008H.grib2 2026-05-04 18:11 1.1M
20260504T12Z_MSC_CAPS_SoilTemp_DBS-0to10cm_RLatLon0.03_PT008H.grib2 2026-05-04 18:11 1.4M
20260504T12Z_MSC_CAPS_SoilTemp_Sfc_RLatLon0.03_PT008H.grib2 2026-05-04 18:11 1.9M
20260504T12Z_MSC_CAPS_SoilVolumetricIceContent_Sfc_RLatLon0.03_PT008H.grib2 2026-05-04 18:11 1.3M
20260504T12Z_MSC_CAPS_SoilVolumetricWaterContent_DBS-0to10cm_RLatLon0.03_PT008H.grib2 2026-05-04 18:11 1.2M
20260504T12Z_MSC_CAPS_SoilVolumetricWaterContent_DBS-0to1cm_RLatLon0.03_PT008H.grib2 2026-05-04 18:11 1.7M
20260504T12Z_MSC_CAPS_SpecificHumidity_AGL-120m_RLatLon0.03_PT008H.grib2 2026-05-04 18:11 1.4M
20260504T12Z_MSC_CAPS_SpecificHumidity_AGL-2m_RLatLon0.03_PT008H.grib2 2026-05-04 18:11 1.7M
20260504T12Z_MSC_CAPS_SpecificHumidity_AGL-40m_RLatLon0.03_PT008H.grib2 2026-05-04 18:11 1.5M
20260504T12Z_MSC_CAPS_SpecificHumidity_AGL-80m_RLatLon0.03_PT008H.grib2 2026-05-04 18:11 1.5M
20260504T12Z_MSC_CAPS_SpecificHumidity_IsbL-0050_RLatLon0.03_PT008H.grib2 2026-05-04 18:11 876K
20260504T12Z_MSC_CAPS_SpecificHumidity_IsbL-0100_RLatLon0.03_PT008H.grib2 2026-05-04 18:11 1.1M
20260504T12Z_MSC_CAPS_SpecificHumidity_IsbL-0150_RLatLon0.03_PT008H.grib2 2026-05-04 18:11 754K
20260504T12Z_MSC_CAPS_SpecificHumidity_IsbL-0175_RLatLon0.03_PT008H.grib2 2026-05-04 18:11 1.0M
20260504T12Z_MSC_CAPS_SpecificHumidity_IsbL-0200_RLatLon0.03_PT008H.grib2 2026-05-04 18:11 860K
20260504T12Z_MSC_CAPS_SpecificHumidity_IsbL-0225_RLatLon0.03_PT008H.grib2 2026-05-04 18:11 828K
20260504T12Z_MSC_CAPS_SpecificHumidity_IsbL-0250_RLatLon0.03_PT008H.grib2 2026-05-04 18:11 1.0M
20260504T12Z_MSC_CAPS_SpecificHumidity_IsbL-0275_RLatLon0.03_PT008H.grib2 2026-05-04 18:11 1.1M
20260504T12Z_MSC_CAPS_SpecificHumidity_IsbL-0300_RLatLon0.03_PT008H.grib2 2026-05-04 18:11 1.0M
20260504T12Z_MSC_CAPS_SpecificHumidity_IsbL-0350_RLatLon0.03_PT008H.grib2 2026-05-04 18:11 945K
20260504T12Z_MSC_CAPS_SpecificHumidity_IsbL-0400_RLatLon0.03_PT008H.grib2 2026-05-04 18:11 938K
20260504T12Z_MSC_CAPS_SpecificHumidity_IsbL-0450_RLatLon0.03_PT008H.grib2 2026-05-04 18:11 1.1M
20260504T12Z_MSC_CAPS_SpecificHumidity_IsbL-0500_RLatLon0.03_PT008H.grib2 2026-05-04 18:11 1.0M
20260504T12Z_MSC_CAPS_SpecificHumidity_IsbL-0550_RLatLon0.03_PT008H.grib2 2026-05-04 18:11 1.2M
20260504T12Z_MSC_CAPS_SpecificHumidity_IsbL-0600_RLatLon0.03_PT008H.grib2 2026-05-04 18:11 1.3M
20260504T12Z_MSC_CAPS_SpecificHumidity_IsbL-0650_RLatLon0.03_PT008H.grib2 2026-05-04 18:11 1.4M
20260504T12Z_MSC_CAPS_SpecificHumidity_IsbL-0700_RLatLon0.03_PT008H.grib2 2026-05-04 18:11 1.2M
20260504T12Z_MSC_CAPS_SpecificHumidity_IsbL-0750_RLatLon0.03_PT008H.grib2 2026-05-04 18:11 1.3M
20260504T12Z_MSC_CAPS_SpecificHumidity_IsbL-0800_RLatLon0.03_PT008H.grib2 2026-05-04 18:11 1.6M
20260504T12Z_MSC_CAPS_SpecificHumidity_IsbL-0850_RLatLon0.03_PT008H.grib2 2026-05-04 18:11 1.7M
20260504T12Z_MSC_CAPS_SpecificHumidity_IsbL-0875_RLatLon0.03_PT008H.grib2 2026-05-04 18:11 1.4M
20260504T12Z_MSC_CAPS_SpecificHumidity_IsbL-0900_RLatLon0.03_PT008H.grib2 2026-05-04 18:11 1.4M
20260504T12Z_MSC_CAPS_SpecificHumidity_IsbL-0925_RLatLon0.03_PT008H.grib2 2026-05-04 18:11 1.5M
20260504T12Z_MSC_CAPS_SpecificHumidity_IsbL-0950_RLatLon0.03_PT008H.grib2 2026-05-04 18:11 1.5M
20260504T12Z_MSC_CAPS_SpecificHumidity_IsbL-0970_RLatLon0.03_PT008H.grib2 2026-05-04 18:11 1.6M
20260504T12Z_MSC_CAPS_SpecificHumidity_IsbL-0985_RLatLon0.03_PT008H.grib2 2026-05-04 18:11 1.6M
20260504T12Z_MSC_CAPS_SpecificHumidity_IsbL-1000_RLatLon0.03_PT008H.grib2 2026-05-04 18:11 1.7M
20260504T12Z_MSC_CAPS_SpecificHumidity_IsbL-1015_RLatLon0.03_PT008H.grib2 2026-05-04 18:11 1.7M
20260504T12Z_MSC_CAPS_SpecificHumidity_Sfc_RLatLon0.03_PT008H.grib2 2026-05-04 18:11 2.1M
20260504T12Z_MSC_CAPS_StormRelativeHelicity_Sfc_RLatLon0.03_PT008H.grib2 2026-05-04 18:11 3.3M
20260504T12Z_MSC_CAPS_Thickness_IsbL-1000to0500_RLatLon0.03_PT008H.grib2 2026-05-04 18:11 468K
20260504T12Z_MSC_CAPS_TotalCloudCover_Sfc_RLatLon0.03_PT008H.grib2 2026-05-04 18:11 3.3M
20260504T12Z_MSC_CAPS_TurboclineDepth_Sfc_RLatLon0.03_PT008H.nc 2026-05-04 18:14 16M
20260504T12Z_MSC_CAPS_UpwardLongwaveRadiationFlux_NTAtm_RLatLon0.03_PT008H.grib2 2026-05-04 18:11 2.8M
20260504T12Z_MSC_CAPS_UpwardShortwaveRadiationFlux_NTAtm_RLatLon0.03_PT008H.grib2 2026-05-04 18:11 2.5M
20260504T12Z_MSC_CAPS_VerticalVelocity_IsbL-0250_RLatLon0.03_PT008H.grib2 2026-05-04 18:11 935K
20260504T12Z_MSC_CAPS_VerticalVelocity_IsbL-0500_RLatLon0.03_PT008H.grib2 2026-05-04 18:11 1.2M
20260504T12Z_MSC_CAPS_VerticalVelocity_IsbL-0700_RLatLon0.03_PT008H.grib2 2026-05-04 18:11 957K
20260504T12Z_MSC_CAPS_VerticalVelocity_IsbL-0850_RLatLon0.03_PT008H.grib2 2026-05-04 18:11 1.4M
20260504T12Z_MSC_CAPS_VerticalVelocity_IsbL-1000_RLatLon0.03_PT008H.grib2 2026-05-04 18:11 1.4M
20260504T12Z_MSC_CAPS_WindDir_AGL-10m_RLatLon0.03_PT008H.grib2 2026-05-04 18:11 2.4M
20260504T12Z_MSC_CAPS_WindDir_AGL-120m_RLatLon0.03_PT008H.grib2 2026-05-04 18:11 1.3M
20260504T12Z_MSC_CAPS_WindDir_AGL-40m_RLatLon0.03_PT008H.grib2 2026-05-04 18:11 1.4M
20260504T12Z_MSC_CAPS_WindDir_AGL-80m_RLatLon0.03_PT008H.grib2 2026-05-04 18:11 1.3M
20260504T12Z_MSC_CAPS_WindDir_IsbL-0050_RLatLon0.03_PT008H.grib2 2026-05-04 18:11 1.0M
20260504T12Z_MSC_CAPS_WindDir_IsbL-0100_RLatLon0.03_PT008H.grib2 2026-05-04 18:11 1.1M
20260504T12Z_MSC_CAPS_WindDir_IsbL-0150_RLatLon0.03_PT008H.grib2 2026-05-04 18:11 1.0M
20260504T12Z_MSC_CAPS_WindDir_IsbL-0175_RLatLon0.03_PT008H.grib2 2026-05-04 18:11 1.1M
20260504T12Z_MSC_CAPS_WindDir_IsbL-0200_RLatLon0.03_PT008H.grib2 2026-05-04 18:11 1.1M
20260504T12Z_MSC_CAPS_WindDir_IsbL-0225_RLatLon0.03_PT008H.grib2 2026-05-04 18:11 1.1M
20260504T12Z_MSC_CAPS_WindDir_IsbL-0250_RLatLon0.03_PT008H.grib2 2026-05-04 18:11 1.1M
20260504T12Z_MSC_CAPS_WindDir_IsbL-0275_RLatLon0.03_PT008H.grib2 2026-05-04 18:11 1.1M
20260504T12Z_MSC_CAPS_WindDir_IsbL-0300_RLatLon0.03_PT008H.grib2 2026-05-04 18:11 1.1M
20260504T12Z_MSC_CAPS_WindDir_IsbL-0350_RLatLon0.03_PT008H.grib2 2026-05-04 18:11 1.1M
20260504T12Z_MSC_CAPS_WindDir_IsbL-0400_RLatLon0.03_PT008H.grib2 2026-05-04 18:11 1.1M
20260504T12Z_MSC_CAPS_WindDir_IsbL-0450_RLatLon0.03_PT008H.grib2 2026-05-04 18:11 1.2M
20260504T12Z_MSC_CAPS_WindDir_IsbL-0500_RLatLon0.03_PT008H.grib2 2026-05-04 18:11 1.2M
20260504T12Z_MSC_CAPS_WindDir_IsbL-0550_RLatLon0.03_PT008H.grib2 2026-05-04 18:11 1.3M
20260504T12Z_MSC_CAPS_WindDir_IsbL-0600_RLatLon0.03_PT008H.grib2 2026-05-04 18:11 1.2M
20260504T12Z_MSC_CAPS_WindDir_IsbL-0650_RLatLon0.03_PT008H.grib2 2026-05-04 18:11 1.3M
20260504T12Z_MSC_CAPS_WindDir_IsbL-0700_RLatLon0.03_PT008H.grib2 2026-05-04 18:11 1.4M
20260504T12Z_MSC_CAPS_WindDir_IsbL-0750_RLatLon0.03_PT008H.grib2 2026-05-04 18:11 1.5M
20260504T12Z_MSC_CAPS_WindDir_IsbL-0800_RLatLon0.03_PT008H.grib2 2026-05-04 18:11 1.6M
20260504T12Z_MSC_CAPS_WindDir_IsbL-0850_RLatLon0.03_PT008H.grib2 2026-05-04 18:11 1.8M
20260504T12Z_MSC_CAPS_WindDir_IsbL-0875_RLatLon0.03_PT008H.grib2 2026-05-04 18:11 1.8M
20260504T12Z_MSC_CAPS_WindDir_IsbL-0900_RLatLon0.03_PT008H.grib2 2026-05-04 18:11 1.9M
20260504T12Z_MSC_CAPS_WindDir_IsbL-0925_RLatLon0.03_PT008H.grib2 2026-05-04 18:11 2.0M
20260504T12Z_MSC_CAPS_WindDir_IsbL-0950_RLatLon0.03_PT008H.grib2 2026-05-04 18:11 2.0M
20260504T12Z_MSC_CAPS_WindDir_IsbL-0970_RLatLon0.03_PT008H.grib2 2026-05-04 18:11 2.1M
20260504T12Z_MSC_CAPS_WindDir_IsbL-0985_RLatLon0.03_PT008H.grib2 2026-05-04 18:11 2.2M
20260504T12Z_MSC_CAPS_WindDir_IsbL-1000_RLatLon0.03_PT008H.grib2 2026-05-04 18:11 2.3M
20260504T12Z_MSC_CAPS_WindDir_IsbL-1015_RLatLon0.03_PT008H.grib2 2026-05-04 18:11 2.4M
20260504T12Z_MSC_CAPS_WindGust-Max_AGL-10m_RLatLon0.03_PT008H.grib2 2026-05-04 18:11 2.6M
20260504T12Z_MSC_CAPS_WindGust-Min_AGL-10m_RLatLon0.03_PT008H.grib2 2026-05-04 18:11 2.4M
20260504T12Z_MSC_CAPS_WindGust_AGL-10m_RLatLon0.03_PT008H.grib2 2026-05-04 18:11 2.5M
20260504T12Z_MSC_CAPS_WindSpeed_AGL-10m_RLatLon0.03_PT008H.grib2 2026-05-04 18:11 2.6M
20260504T12Z_MSC_CAPS_WindSpeed_AGL-120m_RLatLon0.03_PT008H.grib2 2026-05-04 18:11 1.1M
20260504T12Z_MSC_CAPS_WindSpeed_AGL-40m_RLatLon0.03_PT008H.grib2 2026-05-04 18:11 1.6M
20260504T12Z_MSC_CAPS_WindSpeed_AGL-80m_RLatLon0.03_PT008H.grib2 2026-05-04 18:11 1.5M
20260504T12Z_MSC_CAPS_WindSpeed_IsbL-0050_RLatLon0.03_PT008H.grib2 2026-05-04 18:11 1.3M
20260504T12Z_MSC_CAPS_WindSpeed_IsbL-0100_RLatLon0.03_PT008H.grib2 2026-05-04 18:11 1.0M
20260504T12Z_MSC_CAPS_WindSpeed_IsbL-0150_RLatLon0.03_PT008H.grib2 2026-05-04 18:11 1.1M
20260504T12Z_MSC_CAPS_WindSpeed_IsbL-0175_RLatLon0.03_PT008H.grib2 2026-05-04 18:11 1.1M
20260504T12Z_MSC_CAPS_WindSpeed_IsbL-0200_RLatLon0.03_PT008H.grib2 2026-05-04 18:11 947K
20260504T12Z_MSC_CAPS_WindSpeed_IsbL-0225_RLatLon0.03_PT008H.grib2 2026-05-04 18:11 962K
20260504T12Z_MSC_CAPS_WindSpeed_IsbL-0250_RLatLon0.03_PT008H.grib2 2026-05-04 18:11 1.0M
20260504T12Z_MSC_CAPS_WindSpeed_IsbL-0275_RLatLon0.03_PT008H.grib2 2026-05-04 18:11 1.0M
20260504T12Z_MSC_CAPS_WindSpeed_IsbL-0300_RLatLon0.03_PT008H.grib2 2026-05-04 18:11 1.0M
20260504T12Z_MSC_CAPS_WindSpeed_IsbL-0350_RLatLon0.03_PT008H.grib2 2026-05-04 18:11 1.0M
20260504T12Z_MSC_CAPS_WindSpeed_IsbL-0400_RLatLon0.03_PT008H.grib2 2026-05-04 18:11 1.0M
20260504T12Z_MSC_CAPS_WindSpeed_IsbL-0450_RLatLon0.03_PT008H.grib2 2026-05-04 18:11 1.0M
20260504T12Z_MSC_CAPS_WindSpeed_IsbL-0500_RLatLon0.03_PT008H.grib2 2026-05-04 18:11 1.4M
20260504T12Z_MSC_CAPS_WindSpeed_IsbL-0550_RLatLon0.03_PT008H.grib2 2026-05-04 18:11 1.4M
20260504T12Z_MSC_CAPS_WindSpeed_IsbL-0600_RLatLon0.03_PT008H.grib2 2026-05-04 18:11 1.4M
20260504T12Z_MSC_CAPS_WindSpeed_IsbL-0650_RLatLon0.03_PT008H.grib2 2026-05-04 18:11 1.5M
20260504T12Z_MSC_CAPS_WindSpeed_IsbL-0700_RLatLon0.03_PT008H.grib2 2026-05-04 18:11 1.5M
20260504T12Z_MSC_CAPS_WindSpeed_IsbL-0750_RLatLon0.03_PT008H.grib2 2026-05-04 18:11 1.6M
20260504T12Z_MSC_CAPS_WindSpeed_IsbL-0800_RLatLon0.03_PT008H.grib2 2026-05-04 18:11 1.6M
20260504T12Z_MSC_CAPS_WindSpeed_IsbL-0850_RLatLon0.03_PT008H.grib2 2026-05-04 18:11 1.7M
20260504T12Z_MSC_CAPS_WindSpeed_IsbL-0875_RLatLon0.03_PT008H.grib2 2026-05-04 18:11 1.8M
20260504T12Z_MSC_CAPS_WindSpeed_IsbL-0900_RLatLon0.03_PT008H.grib2 2026-05-04 18:11 1.8M
20260504T12Z_MSC_CAPS_WindSpeed_IsbL-0925_RLatLon0.03_PT008H.grib2 2026-05-04 18:11 1.9M
20260504T12Z_MSC_CAPS_WindSpeed_IsbL-0950_RLatLon0.03_PT008H.grib2 2026-05-04 18:11 1.9M
20260504T12Z_MSC_CAPS_WindSpeed_IsbL-0970_RLatLon0.03_PT008H.grib2 2026-05-04 18:11 2.0M
20260504T12Z_MSC_CAPS_WindSpeed_IsbL-0985_RLatLon0.03_PT008H.grib2 2026-05-04 18:11 2.0M
20260504T12Z_MSC_CAPS_WindSpeed_IsbL-1000_RLatLon0.03_PT008H.grib2 2026-05-04 18:11 2.1M
20260504T12Z_MSC_CAPS_WindSpeed_IsbL-1015_RLatLon0.03_PT008H.grib2 2026-05-04 18:11 2.1M
20260504T12Z_MSC_CAPS_WindU_AGL-10m_RLatLon0.03_PT008H.grib2 2026-05-04 18:11 2.0M
20260504T12Z_MSC_CAPS_WindU_AGL-120m_RLatLon0.03_PT008H.grib2 2026-05-04 18:11 1.2M
20260504T12Z_MSC_CAPS_WindU_AGL-40m_RLatLon0.03_PT008H.grib2 2026-05-04 18:11 1.2M
20260504T12Z_MSC_CAPS_WindU_AGL-80m_RLatLon0.03_PT008H.grib2 2026-05-04 18:11 1.2M
20260504T12Z_MSC_CAPS_WindU_IsbL-0050_RLatLon0.03_PT008H.grib2 2026-05-04 18:11 945K
20260504T12Z_MSC_CAPS_WindU_IsbL-0100_RLatLon0.03_PT008H.grib2 2026-05-04 18:11 1.0M
20260504T12Z_MSC_CAPS_WindU_IsbL-0150_RLatLon0.03_PT008H.grib2 2026-05-04 18:11 934K
20260504T12Z_MSC_CAPS_WindU_IsbL-0175_RLatLon0.03_PT008H.grib2 2026-05-04 18:11 735K
20260504T12Z_MSC_CAPS_WindU_IsbL-0200_RLatLon0.03_PT008H.grib2 2026-05-04 18:11 884K
20260504T12Z_MSC_CAPS_WindU_IsbL-0225_RLatLon0.03_PT008H.grib2 2026-05-04 18:11 901K
20260504T12Z_MSC_CAPS_WindU_IsbL-0250_RLatLon0.03_PT008H.grib2 2026-05-04 18:11 704K
20260504T12Z_MSC_CAPS_WindU_IsbL-0275_RLatLon0.03_PT008H.grib2 2026-05-04 18:11 713K
20260504T12Z_MSC_CAPS_WindU_IsbL-0300_RLatLon0.03_PT008H.grib2 2026-05-04 18:11 722K
20260504T12Z_MSC_CAPS_WindU_IsbL-0350_RLatLon0.03_PT008H.grib2 2026-05-04 18:11 736K
20260504T12Z_MSC_CAPS_WindU_IsbL-0400_RLatLon0.03_PT008H.grib2 2026-05-04 18:11 957K
20260504T12Z_MSC_CAPS_WindU_IsbL-0450_RLatLon0.03_PT008H.grib2 2026-05-04 18:11 973K
20260504T12Z_MSC_CAPS_WindU_IsbL-0500_RLatLon0.03_PT008H.grib2 2026-05-04 18:11 1.0M
20260504T12Z_MSC_CAPS_WindU_IsbL-0550_RLatLon0.03_PT008H.grib2 2026-05-04 18:11 1.0M
20260504T12Z_MSC_CAPS_WindU_IsbL-0600_RLatLon0.03_PT008H.grib2 2026-05-04 18:11 946K
20260504T12Z_MSC_CAPS_WindU_IsbL-0650_RLatLon0.03_PT008H.grib2 2026-05-04 18:11 1.0M
20260504T12Z_MSC_CAPS_WindU_IsbL-0700_RLatLon0.03_PT008H.grib2 2026-05-04 18:11 1.0M
20260504T12Z_MSC_CAPS_WindU_IsbL-0750_RLatLon0.03_PT008H.grib2 2026-05-04 18:11 1.1M
20260504T12Z_MSC_CAPS_WindU_IsbL-0800_RLatLon0.03_PT008H.grib2 2026-05-04 18:11 1.1M
20260504T12Z_MSC_CAPS_WindU_IsbL-0850_RLatLon0.03_PT008H.grib2 2026-05-04 18:11 1.2M
20260504T12Z_MSC_CAPS_WindU_IsbL-0875_RLatLon0.03_PT008H.grib2 2026-05-04 18:11 1.2M
20260504T12Z_MSC_CAPS_WindU_IsbL-0900_RLatLon0.03_PT008H.grib2 2026-05-04 18:11 1.3M
20260504T12Z_MSC_CAPS_WindU_IsbL-0925_RLatLon0.03_PT008H.grib2 2026-05-04 18:11 1.3M
20260504T12Z_MSC_CAPS_WindU_IsbL-0950_RLatLon0.03_PT008H.grib2 2026-05-04 18:11 1.4M
20260504T12Z_MSC_CAPS_WindU_IsbL-0970_RLatLon0.03_PT008H.grib2 2026-05-04 18:11 1.4M
20260504T12Z_MSC_CAPS_WindU_IsbL-0985_RLatLon0.03_PT008H.grib2 2026-05-04 18:11 1.4M
20260504T12Z_MSC_CAPS_WindU_IsbL-1000_RLatLon0.03_PT008H.grib2 2026-05-04 18:11 1.8M
20260504T12Z_MSC_CAPS_WindU_IsbL-1015_RLatLon0.03_PT008H.grib2 2026-05-04 18:11 2.0M
20260504T12Z_MSC_CAPS_WindV_AGL-10m_RLatLon0.03_PT008H.grib2 2026-05-04 18:11 2.0M
20260504T12Z_MSC_CAPS_WindV_AGL-120m_RLatLon0.03_PT008H.grib2 2026-05-04 18:11 1.2M
20260504T12Z_MSC_CAPS_WindV_AGL-40m_RLatLon0.03_PT008H.grib2 2026-05-04 18:11 1.2M
20260504T12Z_MSC_CAPS_WindV_AGL-80m_RLatLon0.03_PT008H.grib2 2026-05-04 18:11 1.2M
20260504T12Z_MSC_CAPS_WindV_IsbL-0050_RLatLon0.03_PT008H.grib2 2026-05-04 18:11 771K
20260504T12Z_MSC_CAPS_WindV_IsbL-0100_RLatLon0.03_PT008H.grib2 2026-05-04 18:11 1.0M
20260504T12Z_MSC_CAPS_WindV_IsbL-0150_RLatLon0.03_PT008H.grib2 2026-05-04 18:11 721K
20260504T12Z_MSC_CAPS_WindV_IsbL-0175_RLatLon0.03_PT008H.grib2 2026-05-04 18:11 857K
20260504T12Z_MSC_CAPS_WindV_IsbL-0200_RLatLon0.03_PT008H.grib2 2026-05-04 18:11 874K
20260504T12Z_MSC_CAPS_WindV_IsbL-0225_RLatLon0.03_PT008H.grib2 2026-05-04 18:11 895K
20260504T12Z_MSC_CAPS_WindV_IsbL-0250_RLatLon0.03_PT008H.grib2 2026-05-04 18:11 705K
20260504T12Z_MSC_CAPS_WindV_IsbL-0275_RLatLon0.03_PT008H.grib2 2026-05-04 18:11 714K
20260504T12Z_MSC_CAPS_WindV_IsbL-0300_RLatLon0.03_PT008H.grib2 2026-05-04 18:11 722K
20260504T12Z_MSC_CAPS_WindV_IsbL-0350_RLatLon0.03_PT008H.grib2 2026-05-04 18:11 733K
20260504T12Z_MSC_CAPS_WindV_IsbL-0400_RLatLon0.03_PT008H.grib2 2026-05-04 18:11 736K
20260504T12Z_MSC_CAPS_WindV_IsbL-0450_RLatLon0.03_PT008H.grib2 2026-05-04 18:11 1.0M
20260504T12Z_MSC_CAPS_WindV_IsbL-0500_RLatLon0.03_PT008H.grib2 2026-05-04 18:11 1.0M
20260504T12Z_MSC_CAPS_WindV_IsbL-0550_RLatLon0.03_PT008H.grib2 2026-05-04 18:11 1.0M
20260504T12Z_MSC_CAPS_WindV_IsbL-0600_RLatLon0.03_PT008H.grib2 2026-05-04 18:11 947K
20260504T12Z_MSC_CAPS_WindV_IsbL-0650_RLatLon0.03_PT008H.grib2 2026-05-04 18:11 1.0M
20260504T12Z_MSC_CAPS_WindV_IsbL-0700_RLatLon0.03_PT008H.grib2 2026-05-04 18:11 1.0M
20260504T12Z_MSC_CAPS_WindV_IsbL-0750_RLatLon0.03_PT008H.grib2 2026-05-04 18:11 1.1M
20260504T12Z_MSC_CAPS_WindV_IsbL-0800_RLatLon0.03_PT008H.grib2 2026-05-04 18:11 1.1M
20260504T12Z_MSC_CAPS_WindV_IsbL-0850_RLatLon0.03_PT008H.grib2 2026-05-04 18:11 1.2M
20260504T12Z_MSC_CAPS_WindV_IsbL-0875_RLatLon0.03_PT008H.grib2 2026-05-04 18:11 1.2M
20260504T12Z_MSC_CAPS_WindV_IsbL-0900_RLatLon0.03_PT008H.grib2 2026-05-04 18:11 1.3M
20260504T12Z_MSC_CAPS_WindV_IsbL-0925_RLatLon0.03_PT008H.grib2 2026-05-04 18:11 1.3M
20260504T12Z_MSC_CAPS_WindV_IsbL-0950_RLatLon0.03_PT008H.grib2 2026-05-04 18:11 1.4M
20260504T12Z_MSC_CAPS_WindV_IsbL-0970_RLatLon0.03_PT008H.grib2 2026-05-04 18:11 1.4M
20260504T12Z_MSC_CAPS_WindV_IsbL-0985_RLatLon0.03_PT008H.grib2 2026-05-04 18:11 1.8M
20260504T12Z_MSC_CAPS_WindV_IsbL-1000_RLatLon0.03_PT008H.grib2 2026-05-04 18:11 1.8M
20260504T12Z_MSC_CAPS_WindV_IsbL-1015_RLatLon0.03_PT008H.grib2 2026-05-04 18:11 2.0M